JAY1VI EDLW-EYVI

Flight info

Callsign JAY1VI
Flight time N/A
Altitude 37000
Route HMM1U HMM M170 DOMJO Z851 ROBEG L980 HLZ DCT ALUKA L29 GRUDA N858 BOKSU DCT IRKAL
Aircraft A320/M-SDE3FGHIRWY/LB1

Departure

Time 2026-05-03 22:15
Airport Dortmund Airport (EDLW)

Arrival

Time N/A
Airport Vilnius International Airport (EYVI)
Time Latitude Longitude Altitude Speed Heading
2026-05-03 21:51 51.51646 7.61458 434 ft 0 kts 332°
2026-05-03 22:10 51.51661 7.61445 423 ft 3 kts 332°
2026-05-03 22:10 51.51679 7.61430 427 ft 4 kts 332°
2026-05-03 22:10 51.51726 7.61469 421 ft 13 kts 60°
2026-05-03 22:10 51.51782 7.61641 420 ft 23 kts 56°
2026-05-03 22:11 51.51881 7.61917 414 ft 32 kts 62°
2026-05-03 22:11 51.51998 7.62241 412 ft 34 kts 60°
2026-05-03 22:11 51.52113 7.62569 412 ft 32 kts 61°
2026-05-03 22:11 51.52173 7.62742 411 ft 18 kts 61°
2026-05-03 22:12 51.52249 7.62772 407 ft 10 kts 340°
2026-05-03 22:12 51.52301 7.62739 413 ft 6 kts 338°
2026-05-03 22:12 51.52329 7.62709 414 ft 4 kts 326°
2026-05-03 22:12 51.52343 7.62687 414 ft 2 kts 300°
2026-05-03 22:13 51.52341 7.62677 414 ft 1 kts 259°
2026-05-03 22:13 51.52340 7.62667 414 ft 3 kts 257°
2026-05-03 22:13 51.52334 7.62645 415 ft 1 kts 242°
2026-05-03 22:13 51.52334 7.62644 415 ft 0 kts 242°
2026-05-03 22:14 51.52315 7.62586 410 ft 23 kts 242°
2026-05-03 22:14 51.52098 7.61976 410 ft 98 kts 241°
2026-05-03 22:14 51.51662 7.60750 457 ft 149 kts 240°
2026-05-03 22:15 51.51165 7.59299 1215 ft 140 kts 240°
2026-05-03 22:15 51.50691 7.57928 1909 ft 143 kts 240°
2026-05-03 22:15 51.50162 7.56435 2277 ft 165 kts 240°
2026-05-03 22:15 51.49554 7.54724 2636 ft 189 kts 240°
2026-05-03 22:16 51.48859 7.52771 3075 ft 214 kts 240°
2026-05-03 22:16 51.48079 7.50588 3619 ft 237 kts 240°
2026-05-03 22:16 51.47495 7.48064 4442 ft 249 kts 265°
2026-05-03 22:16 51.47858 7.45310 5391 ft 259 kts 290°
2026-05-03 22:17 51.48847 7.42856 6345 ft 271 kts 316°
2026-05-03 22:17 51.50529 7.41374 7244 ft 281 kts 333°
2026-05-03 22:17 51.52324 7.40074 8184 ft 285 kts 333°
2026-05-03 22:17 51.54271 7.39240 9096 ft 296 kts 352°
2026-05-03 22:18 51.56351 7.39522 9984 ft 307 kts 15°
2026-05-03 22:18 51.58317 7.41051 10557 ft 326 kts 31°
2026-05-03 22:18 51.60289 7.43094 10925 ft 348 kts 33°
2026-05-03 22:18 51.62327 7.45311 11621 ft 357 kts 33°
2026-05-03 22:19 51.64392 7.47595 12443 ft 362 kts 33°
2026-05-03 22:19 51.66482 7.49910 13305 ft 367 kts 33°
2026-05-03 22:19 51.68601 7.52240 14070 ft 371 kts 33°
2026-05-03 22:19 51.70752 7.54589 14788 ft 375 kts 33°
2026-05-03 22:20 51.72932 7.56960 15495 ft 380 kts 33°
2026-05-03 22:20 51.75138 7.59352 16211 ft 384 kts 32°
2026-05-03 22:20 51.77368 7.61765 16919 ft 389 kts 32°
2026-05-03 22:20 51.79627 7.64214 17623 ft 393 kts 32°
2026-05-03 22:21 51.81911 7.66696 18298 ft 398 kts 32°
2026-05-03 22:21 51.84219 7.69209 18877 ft 402 kts 33°
2026-05-03 22:21 51.86420 7.72041 19451 ft 408 kts 43°
2026-05-03 22:21 51.88409 7.75349 20034 ft 412 kts 46°
2026-05-03 22:22 51.90408 7.78703 20630 ft 416 kts 46°
2026-05-03 22:22 51.92432 7.82081 21195 ft 420 kts 46°
2026-05-03 22:22 51.94452 7.85448 21757 ft 424 kts 46°
2026-05-03 22:22 51.96537 7.88937 22340 ft 427 kts 46°
2026-05-03 22:23 51.98587 7.92372 22900 ft 431 kts 46°
2026-05-03 22:23 52.00648 7.95937 23440 ft 435 kts 51°
2026-05-03 22:23 52.02395 7.99964 23928 ft 437 kts 61°
2026-05-03 22:23 52.03697 8.04419 24392 ft 438 kts 72°
2026-05-03 22:24 52.04564 8.09165 24854 ft 439 kts 78°
2026-05-03 22:24 52.05349 8.13976 25306 ft 443 kts 77°
2026-05-03 22:24 52.06151 8.18832 25757 ft 446 kts 77°
2026-05-03 22:24 52.06957 8.23709 26206 ft 449 kts 77°
2026-05-03 22:25 52.07770 8.28628 26647 ft 452 kts 77°
2026-05-03 22:25 52.08584 8.33575 27086 ft 455 kts 77°
2026-05-03 22:25 52.09399 8.38569 27527 ft 458 kts 78°
2026-05-03 22:25 52.10212 8.43588 27952 ft 461 kts 78°
2026-05-03 22:26 52.11024 8.48651 28374 ft 464 kts 78°
2026-05-03 22:26 52.11837 8.53751 28789 ft 467 kts 78°
2026-05-03 22:26 52.12653 8.58883 29200 ft 470 kts 78°
2026-05-03 22:26 52.13473 8.64049 29598 ft 473 kts 78°
2026-05-03 22:27 52.14301 8.69252 29987 ft 476 kts 78°
2026-05-03 22:27 52.15133 8.74479 30312 ft 478 kts 78°
2026-05-03 22:27 52.15967 8.79733 30642 ft 480 kts 78°
2026-05-03 22:27 52.16801 8.85012 30966 ft 482 kts 78°
2026-05-03 22:28 52.17635 8.90311 31284 ft 484 kts 78°
2026-05-03 22:28 52.18467 8.95640 31627 ft 486 kts 78°
2026-05-03 22:28 52.19299 9.00966 32097 ft 484 kts 78°
2026-05-03 22:28 52.20131 9.06266 32559 ft 483 kts 78°
2026-05-03 22:29 52.20962 9.11560 33025 ft 481 kts 78°
2026-05-03 22:29 52.21788 9.16839 33487 ft 480 kts 78°
2026-05-03 22:29 52.22612 9.22105 33945 ft 478 kts 78°
2026-05-03 22:29 52.23297 9.27396 34324 ft 475 kts 85°
2026-05-03 22:30 52.23555 9.32733 34703 ft 472 kts 90°
2026-05-03 22:30 52.23706 9.38083 35063 ft 471 kts 90°
2026-05-03 22:30 52.23859 9.43426 35431 ft 471 kts 90°
2026-05-03 22:30 52.24013 9.48756 35782 ft 470 kts 90°
2026-05-03 22:31 52.24166 9.54074 36133 ft 469 kts 90°
2026-05-03 22:31 52.24317 9.59393 36466 ft 469 kts 90°
2026-05-03 22:31 52.24465 9.64708 36780 ft 468 kts 90°
2026-05-03 22:31 52.24610 9.70015 36931 ft 468 kts 90°
2026-05-03 22:32 52.24752 9.75315 36949 ft 467 kts 90°
2026-05-03 22:32 52.25020 9.85891 36953 ft 466 kts 89°
2026-05-03 22:33 52.26078 9.96356 36948 ft 468 kts 79°
2026-05-03 22:33 52.27406 10.06741 36948 ft 467 kts 79°
2026-05-03 22:34 52.28722 10.17134 36949 ft 467 kts 80°
2026-05-03 22:34 52.30018 10.27533 36943 ft 467 kts 80°
2026-05-03 22:35 52.31298 10.37943 36942 ft 467 kts 80°
2026-05-03 22:35 52.32569 10.48341 36937 ft 467 kts 80°
2026-05-03 22:36 52.33842 10.58744 36937 ft 467 kts 80°
2026-05-03 22:36 52.35106 10.69163 36946 ft 467 kts 80°
2026-05-03 22:37 52.36357 10.79584 36944 ft 467 kts 79°
2026-05-03 22:37 52.37889 10.89902 36941 ft 467 kts 75°
2026-05-03 22:38 52.39723 11.00109 36941 ft 467 kts 74°
2026-05-03 22:38 52.41541 11.10317 36941 ft 467 kts 75°
2026-05-03 22:39 52.43261 11.20583 36936 ft 467 kts 76°
2026-05-03 22:39 52.44929 11.30878 36933 ft 467 kts 76°
2026-05-03 22:40 52.46590 11.41164 36934 ft 467 kts 76°
2026-05-03 22:40 52.48272 11.51454 36935 ft 467 kts 76°
2026-05-03 22:41 52.49944 11.61750 36939 ft 467 kts 76°
2026-05-03 22:41 52.51602 11.72049 36937 ft 467 kts 76°
2026-05-03 22:42 52.53249 11.82371 36937 ft 467 kts 76°
2026-05-03 22:42 52.54889 11.92691 36941 ft 467 kts 76°
2026-05-03 22:43 52.56524 12.03020 36937 ft 467 kts 76°
2026-05-03 22:43 52.58148 12.13346 36938 ft 466 kts 76°
2026-05-03 22:44 52.59756 12.23677 36942 ft 466 kts 76°
2026-05-03 22:44 52.61359 12.34013 36931 ft 466 kts 76°
2026-05-03 22:45 52.62942 12.44281 36933 ft 466 kts 76°
2026-05-03 22:45 52.64521 12.54625 36930 ft 465 kts 76°
2026-05-03 22:46 52.66093 12.64948 36924 ft 465 kts 76°
2026-05-03 22:46 52.67662 12.75278 36915 ft 464 kts 76°
2026-05-03 22:47 52.69219 12.85603 36910 ft 464 kts 76°
2026-05-03 22:47 52.70751 12.95937 36912 ft 464 kts 76°
2026-05-03 22:48 52.72272 13.06281 36913 ft 464 kts 76°
2026-05-03 22:48 52.73793 13.16620 36915 ft 463 kts 76°
2026-05-03 22:49 52.75310 13.26948 36916 ft 463 kts 76°
2026-05-03 22:49 52.76819 13.37288 36917 ft 463 kts 76°
2026-05-03 22:50 52.78309 13.47616 36919 ft 462 kts 76°
2026-05-03 22:50 52.79784 13.57956 36924 ft 462 kts 76°
2026-05-03 22:51 52.81251 13.68293 36926 ft 462 kts 76°
2026-05-03 22:51 52.82712 13.78625 36929 ft 461 kts 76°
2026-05-03 22:52 52.84162 13.88959 36928 ft 460 kts 76°
2026-05-03 22:52 52.85600 13.99275 36926 ft 460 kts 76°
2026-05-03 22:53 52.86794 14.07845 36930 ft 460 kts 76°
2026-05-03 22:53 52.88220 14.18154 36926 ft 459 kts 76°
2026-05-03 22:54 52.89623 14.28465 36927 ft 459 kts 76°
2026-05-03 22:54 52.91103 14.38735 36928 ft 458 kts 74°
2026-05-03 22:55 52.92763 14.48905 36931 ft 457 kts 73°
2026-05-03 22:55 52.94435 14.59074 36928 ft 457 kts 73°
2026-05-03 22:56 52.96045 14.69254 36927 ft 456 kts 74°
2026-05-03 22:56 52.97628 14.79439 36925 ft 456 kts 74°
2026-05-03 22:57 52.99192 14.89623 36925 ft 455 kts 74°
2026-05-03 22:57 53.00750 14.99801 36926 ft 454 kts 74°
2026-05-03 22:58 53.02307 15.09960 36926 ft 454 kts 74°
2026-05-03 22:58 53.03859 15.20119 36922 ft 453 kts 74°
2026-05-03 22:59 53.04887 15.26906 36920 ft 453 kts 74°